Temp
69 73 70 68 58 53 49 54 57 61 61 62 67 62 59 60 57 51 72 74 74 72 74 73 73 74 73 73 73 72 72 72 72 72 72 71 71 70 71 71 71 71 72 71 71 71 72 70 71
68 75 67 60 55 46 49 53 55 60 65 66 66 63 60 58 65 66 69 75 76 74 73 72 71 73 73 72 72 72 72 71 71 71 71 70 70 70 70 70 70 71 70 71 72 71 70 69 69
71 72 60 54 54 47 48 52 58 63 67 66 62 63 60 59 69 71 72 77 77 75 72 71 71 72 72 72 71 71 71 70 70 70 70 69 69 69 69 69 70 71 71 70 70 70 70 69 69
69 65 59 51 49 52 53 57 62 61 67 66 61 55 61 66 69 72 73 73 70 70 71 70 71 72 71 71 71 70 70 69 69 69 69 68 68 68 68 68 69 69 69 69 70 70 69 69 69
66 59 48 50 53 55 58 64 62 61 63 60 61 55 58 67 72 73 71 70 67 67 69 70 70 70 71 70 70 69 69 68 68 68 68 68 68 67 67 67 68 68 69 70 70 69 69 69 68
58 56 46 47 53 56 62 63 61 61 62 61 58 56 59 67 69 70 70 68 69 66 67 67 65 67 68 68 68 68 68 67 68 68 67 67 67 67 67 66 67 67 68 68 69 69 69 69 69
56 52 47 48 54 55 61 62 58 57 58 58 61 54 60 64 67 68 68 68 67 67 66 66 65 64 64 65 65 66 67 67 66 67 67 65 65 66 65 65 66 67 68 68 68 70 69 70 69
59 54 46 48 52 53 61 60 58 61 54 61 59 52 57 62 66 68 67 66 66 66 66 65 64 64 60 60 63 64 65 65 65 65 64 64 64 64 64 62 64 67 68 69 68 69 69 68 68
63 48 44 48 51 54 59 58 60 63 53 55 58 56 58 64 66 64 63 63 64 65 65 66 66 62 61 60 61 62 63 63 62 61 61 60 58 59 61 61 64 66 66 68 69 69 67 65 64
57 48 48 53 53 53 59 60 57 55 55 55 57 58 60 62 63 61 61 60 61 62 64 66 65 62 62 67 60 60 62 58 58 57 57 58 58 57 59 58 61 62 63 64 66 67 65 61 59
58 49 53 52 56 56 60 57 55 55 50 51 54 54 57 58 59 58 58 59 61 62 64 65 62 60 60 60 58 57 56 55 55 56 56 56 56 54 54 54 54 59 59 57 59 59 58 59 58
53 57 56 54 56 56 57 58 52 51 50 56 57 58 57 56 57 58 58 59 60 62 64 64 61 61 59 58 57 57 56 55 54 55 56 54 52 53 54 55 60 59 58 56 55 56 58 58 60
54 54 56 55 54 55 57 56 53 51 55 57 59 59 58 57 57 59 60 60 61 60 61 64 63 60 60 58 56 55 55 54 55 55 57 55 56 56 58 58 59 59 56 56 55 55 56 57 59
54 53 52 56 54 54 53 53 54 54 55 55 58 56 57 57 58 59 60 58 58 58 58 63 63 61 60 56 56 55 55 55 54 57 59 60 58 57 57 57 57 58 60 58 56 55 55 56 60
55 48 51 51 53 51 54 49 49 52 55 53 52 51 52 55 56 55 56 54 55 56 58 60 62 63 61 57 56 55 56 55 54 58 59 59 58 57 57 56 57 58 60 60 56 56 56 55 61
48 49 41 52 54 52 51 44 48 52 51 50 50 49 49 49 50 50 53 53 53 55 56 59 63 62 60 58 55 55 54 52 53 57 57 56 57 57 57 56 56 58 58 58 58 55 53 52 56
46 38 39 44 52 50 51 46 50 52 51 50 48 47 48 48 49 50 51 52 52 54 56 57 60 60 60 58 55 53 53 53 56 55 55 55 55 56 56 55 55 56 53 52 54 52 51 50 51
38 39 40 41 49 50 47 46 49 51 50 49 48 47 47 47 47 50 50 51 52 52 55 57 59 60 59 57 53 53 54 54 54 53 53 53 52 53 53 51 51 51 51 51 51 51 52 49 49
49 44 40 44 48 47 46 47 49 49 48 47 48 47 47 47 49 50 50 50 50 50 52 56 56 57 58 53 54 53 52 52 51 52 52 50 48 49 49 49 49 49 50 53 52 48 49 49 49
47 43 40 45 47 44 43 42 48 49 48 50 51 49 47 47 48 49 48 48 49 49 50 52 54 54 54 56 55 54 53 52 51 50 49 48 47 48 50 47 48 48 48 52 51 49 47 47 48
44 42 43 43 44 44 39 36 42 49 50 50 52 53 51 48 47 48 48 47 47 46 47 49 50 52 54 56 55 54 53 52 50 47 45 46 47 47 47 46 46 46 47 49 48 45 45 43 46
40 50 48 45 41 30 40 29 35 44 46 49 51 50 50 48 48 49 48 45 45 44 46 47 48 49 53 56 54 53 51 49 45 44 44 44 45 45 45 45 45 45 45 44 44 45 43 42 38
44 50 47 45 39 40 34 28 35 41 42 44 49 51 49 49 48 47 47 47 45 44 43 45 46 47 49 53 54 52 50 49 46 44 43 43 43 43 44 44 44 44 44 43 42 40 40 40 38
51 47 45 42 38 23 34 31 29 36 44 45 47 49 47 47 47 47 47 45 43 43 43 43 44 44 46 47 50 51 48 45 43 43 42 40 41 41 42 43 42 42 42 42 40 39 38 38 38
47 39 24 23 28 25 37 32 34 44 48 48 47 47 45 47 46 44 43 42 41 41 42 43 43 42 44 44 44 44 45 44 43 43 42 40 39 39 40 40 40 39 40 41 40 38 37 36 35
41 39 28 22 24 27 36 29 37 46 44 44 45 46 46 45 46 43 42 41 41 41 41 42 41 41 41 42 41 42 43 42 42 42 41 39 38 39 41 39 39 40 40 39 38 37 36 35 34
39 36 42 33 27 26 31 36 44 40 42 41 42 43 43 43 43 41 40 41 40 40 40 40 39 40 40 40 40 40 40 40 40 40 40 40 40 40 39 39 38 38 38 37 37 35 34 34 33
43 46 33 31 18 20 28 29 36 39 42 40 39 39 38 39 38 38 39 38 38 39 38 38 39 38 38 38 38 38 38 38 39 39 38 38 38 38 37 37 37 37 36 36 35 34 33 32 33
38 37 39 38 32 27 25 30 41 42 44 42 39 41 38 38 38 38 36 36 37 36 36 36 36 36 36 36 36 36 37 38 38 38 37 37 38 38 37 37 37 36 35 35 34 32 32 31 30
44 41 41 31 29 30 31 34 47 45 44 44 41 41 39 40 37 36 36 35 34 34 34 34 34 34 35 36 36 36 36 37 36 37 37 37 37 37 37 36 35 35 34 33 32 32 30 29 28
MSLP
1012.51 1011.64 1011.35 1011.51 1012.60 1012.80 1012.69 1012.17 1011.50 1011.48 1012.08 1012.56 1012.43 1013.04 1015.27 1015.93 1016.49 1017.69 1017.73 1017.78 1018.14 1018.58 1018.93 1019.35 1019.64 1019.97 1020.22 1020.39 1020.51 1020.48 1020.39 1020.45 1020.47 1020.37 1020.21 1020.29 1020.21 1020.14 1020.04 1019.85 1019.69 1019.39 1019.05 1019.04 1018.81 1018.60 1018.39 1018.36 1018.10
1012.43 1011.66 1011.74 1012.35 1013.03 1013.31 1013.04 1012.45 1012.41 1012.11 1012.48 1012.72 1013.37 1014.58 1015.34 1017.15 1017.04 1017.42 1017.55 1017.87 1017.86 1018.53 1019.22 1019.69 1020.02 1020.13 1020.47 1020.64 1020.70 1020.73 1020.70 1020.70 1020.66 1020.61 1020.46 1020.39 1020.36 1020.27 1020.21 1020.06 1019.86 1019.63 1019.52 1019.23 1018.89 1018.77 1018.72 1018.55 1018.30
1012.43 1012.00 1012.78 1013.32 1013.48 1013.64 1013.38 1012.95 1012.62 1012.55 1012.63 1012.99 1014.52 1015.42 1016.57 1017.84 1017.40 1017.57 1017.80 1017.74 1018.10 1018.76 1019.38 1019.99 1020.32 1020.37 1020.71 1020.94 1020.96 1020.94 1020.81 1021.05 1020.99 1020.89 1020.75 1020.61 1020.54 1020.47 1020.40 1020.27 1020.11 1019.85 1019.65 1019.47 1019.24 1019.05 1018.92 1018.69 1018.52
1012.63 1012.73 1013.69 1013.79 1014.09 1013.81 1013.44 1013.17 1012.77 1012.82 1013.04 1013.65 1015.01 1016.94 1017.93 1018.42 1017.84 1018.19 1018.33 1018.20 1018.86 1019.45 1019.75 1020.15 1020.52 1020.70 1020.94 1021.17 1021.26 1021.23 1021.13 1021.18 1021.23 1021.26 1021.16 1020.94 1020.74 1020.68 1020.61 1020.46 1020.31 1020.18 1020.04 1019.79 1019.54 1019.31 1019.11 1018.90 1018.68
1012.93 1013.69 1014.39 1014.51 1014.16 1013.95 1013.32 1013.09 1013.22 1013.47 1014.13 1014.74 1015.23 1017.88 1018.44 1018.60 1018.27 1018.34 1018.63 1018.81 1019.39 1020.04 1020.27 1020.49 1020.83 1021.00 1021.16 1021.33 1021.51 1021.52 1021.44 1021.41 1021.52 1021.41 1021.42 1021.32 1021.09 1020.86 1020.77 1020.65 1020.56 1020.46 1020.15 1019.95 1019.73 1019.50 1019.28 1019.05 1018.84
1013.89 1014.27 1014.86 1014.99 1014.50 1013.86 1013.50 1013.65 1013.63 1014.39 1015.13 1015.68 1016.67 1017.89 1018.99 1018.89 1018.84 1019.03 1019.25 1019.63 1020.00 1020.37 1020.78 1021.02 1021.30 1021.39 1021.54 1021.68 1021.74 1021.86 1021.66 1021.51 1021.57 1021.64 1021.59 1021.48 1021.34 1021.13 1020.95 1020.83 1020.63 1020.60 1020.48 1020.24 1020.03 1019.69 1019.39 1019.09 1018.91
1014.03 1014.61 1015.06 1015.19 1014.72 1014.35 1013.98 1014.04 1014.97 1015.56 1015.92 1016.74 1016.96 1018.58 1019.42 1019.34 1019.45 1019.54 1019.92 1020.05 1020.52 1020.94 1021.15 1021.40 1021.62 1021.76 1021.95 1022.01 1021.95 1022.04 1021.83 1021.78 1021.73 1021.76 1021.63 1021.66 1021.61 1021.37 1021.17 1021.02 1020.74 1020.61 1020.50 1020.31 1020.12 1019.71 1019.45 1019.18 1019.07
1013.97 1014.57 1015.42 1015.49 1015.04 1014.94 1014.42 1014.83 1015.50 1015.99 1017.18 1017.49 1018.04 1019.02 1019.85 1019.81 1019.82 1019.96 1020.55 1020.66 1021.00 1021.21 1021.30 1021.48 1021.78 1021.95 1022.22 1022.28 1022.23 1022.16 1022.05 1021.80 1021.96 1022.07 1021.88 1021.79 1021.65 1021.54 1021.38 1021.21 1020.99 1020.79 1020.59 1020.26 1020.16 1019.89 1019.70 1019.50 1019.37
1013.93 1015.03 1016.02 1015.97 1015.71 1015.38 1015.04 1015.40 1016.36 1017.07 1017.74 1018.49 1019.32 1019.83 1020.20 1020.10 1020.05 1020.36 1020.88 1021.21 1021.42 1021.56 1021.51 1021.49 1021.74 1022.09 1022.28 1022.32 1022.35 1022.49 1022.31 1022.09 1022.06 1022.27 1022.14 1022.04 1021.94 1021.78 1021.67 1021.46 1021.20 1020.92 1020.74 1020.45 1020.18 1020.06 1019.94 1019.82 1019.71
1014.83 1015.55 1016.16 1016.29 1016.09 1015.91 1015.91 1016.22 1016.77 1017.80 1018.67 1019.55 1020.01 1020.39 1020.25 1020.22 1020.39 1020.61 1021.11 1021.46 1021.77 1021.92 1021.78 1021.61 1021.81 1022.07 1022.23 1022.21 1022.55 1022.64 1022.61 1022.52 1022.50 1022.47 1022.42 1022.21 1022.31 1022.18 1022.05 1021.72 1021.44 1021.15 1020.89 1020.66 1020.44 1020.27 1020.18 1020.07 1020.07
1015.56 1016.11 1016.54 1016.82 1016.47 1016.39 1016.53 1017.20 1017.66 1018.39 1019.69 1019.96 1020.26 1020.71 1020.78 1020.78 1021.06 1021.29 1021.43 1021.74 1021.85 1022.04 1022.01 1021.94 1022.03 1022.31 1022.32 1022.49 1022.71 1022.80 1022.95 1022.92 1022.90 1022.89 1022.80 1022.58 1022.57 1022.48 1022.34 1022.01 1021.83 1021.37 1021.10 1021.00 1020.70 1020.46 1020.37 1020.28 1020.20
1016.13 1016.61 1016.79 1017.05 1016.93 1016.87 1017.15 1017.65 1018.51 1018.96 1019.79 1020.04 1020.51 1020.64 1020.92 1021.11 1021.38 1021.70 1021.88 1022.01 1021.96 1022.02 1022.07 1022.21 1022.24 1022.38 1022.61 1022.65 1022.82 1022.94 1023.04 1023.11 1023.32 1023.33 1023.19 1023.04 1022.91 1022.82 1022.54 1022.26 1021.92 1021.68 1021.40 1021.24 1021.03 1020.73 1020.48 1020.39 1020.25
1016.78 1017.18 1017.29 1017.51 1017.47 1017.54 1017.43 1018.17 1019.09 1019.79 1020.10 1020.40 1020.56 1020.83 1021.09 1021.39 1021.69 1021.74 1021.94 1022.16 1022.10 1022.23 1022.21 1022.21 1022.35 1022.62 1022.74 1022.87 1023.00 1023.07 1023.27 1023.26 1023.49 1023.32 1023.48 1023.20 1022.95 1022.84 1022.67 1022.31 1022.07 1021.84 1021.64 1021.40 1021.22 1020.90 1020.70 1020.63 1020.47
1017.44 1017.58 1017.84 1017.78 1017.95 1018.00 1018.33 1018.86 1018.95 1020.08 1020.11 1020.49 1020.63 1021.01 1021.26 1021.59 1021.73 1021.82 1022.00 1022.37 1022.45 1022.58 1022.48 1022.26 1022.37 1022.73 1022.85 1023.17 1023.21 1023.23 1023.35 1023.43 1023.59 1023.39 1023.54 1023.32 1023.06 1023.01 1022.95 1022.62 1022.30 1022.00 1021.67 1021.43 1021.38 1021.15 1020.99 1020.90 1020.62
1017.90 1018.23 1018.10 1018.18 1018.23 1018.30 1018.39 1019.11 1019.36 1019.72 1020.22 1020.76 1021.01 1021.29 1021.63 1022.20 1022.21 1022.23 1022.42 1022.54 1022.80 1022.89 1022.73 1022.48 1022.36 1022.67 1022.97 1023.30 1023.32 1023.51 1023.54 1023.72 1023.80 1023.64 1023.67 1023.66 1023.36 1023.21 1023.06 1022.78 1022.49 1022.21 1021.83 1021.56 1021.38 1021.25 1021.06 1021.05 1020.83
1018.26 1018.53 1018.72 1018.42 1018.35 1018.50 1018.87 1019.08 1019.66 1019.86 1020.25 1020.93 1021.43 1021.59 1021.89 1022.39 1022.57 1022.65 1022.70 1022.66 1022.88 1022.94 1022.93 1022.67 1022.34 1022.75 1023.11 1023.27 1023.43 1023.76 1023.90 1024.09 1023.96 1024.09 1024.03 1024.16 1023.76 1023.50 1023.28 1022.96 1022.89 1022.48 1022.26 1022.15 1021.90 1021.68 1021.58 1021.71 1021.46
1018.83 1019.12 1019.07 1018.78 1018.45 1018.65 1018.99 1019.10 1019.39 1019.85 1020.29 1020.77 1021.22 1021.66 1022.14 1022.46 1022.67 1022.83 1022.92 1023.03 1022.89 1022.87 1022.78 1022.70 1022.55 1022.82 1023.08 1023.26 1023.64 1024.09 1024.24 1024.37 1024.36 1024.57 1024.39 1024.45 1024.13 1023.81 1023.66 1023.43 1023.32 1022.98 1022.96 1022.85 1022.67 1022.32 1022.08 1022.22 1022.20
1018.50 1019.11 1019.07 1018.91 1018.68 1018.66 1019.01 1018.98 1019.40 1019.68 1020.08 1020.59 1020.81 1021.34 1022.07 1022.27 1022.58 1022.73 1022.94 1023.06 1023.03 1022.97 1022.98 1022.77 1022.63 1022.71 1022.83 1023.20 1023.92 1024.14 1024.32 1024.71 1024.87 1025.01 1024.93 1024.82 1024.64 1024.36 1024.12 1024.02 1023.79 1023.59 1023.39 1023.12 1022.97 1022.87 1022.65 1022.69 1022.56
1017.66 1018.34 1018.47 1018.62 1018.66 1018.97 1018.89 1018.99 1018.94 1019.30 1019.80 1020.07 1020.41 1020.84 1021.49 1021.71 1022.05 1022.53 1022.97 1023.08 1023.10 1023.12 1023.10 1022.86 1022.89 1022.87 1022.91 1023.08 1023.56 1024.01 1024.45 1024.96 1025.23 1025.36 1025.33 1025.22 1025.07 1024.90 1024.73 1024.46 1024.15 1024.00 1023.87 1023.64 1023.22 1023.33 1023.27 1022.96 1022.75
1017.53 1017.91 1018.41 1018.61 1018.89 1019.18 1019.31 1018.98 1018.52 1018.68 1018.63 1018.68 1019.11 1019.96 1020.30 1021.06 1021.67 1022.40 1022.58 1022.95 1023.13 1023.26 1023.22 1023.14 1023.03 1022.92 1023.00 1022.96 1023.15 1023.55 1024.10 1024.98 1025.36 1025.59 1025.65 1025.47 1025.38 1025.22 1024.96 1024.87 1024.63 1024.59 1024.26 1024.05 1024.02 1023.77 1023.69 1023.76 1023.75
1017.54 1017.76 1018.05 1018.59 1019.09 1019.41 1019.71 1019.01 1018.02 1017.50 1017.66 1017.97 1018.22 1018.42 1018.94 1019.59 1020.90 1021.88 1022.25 1022.85 1023.01 1023.31 1023.51 1023.42 1023.23 1023.10 1022.91 1022.99 1023.20 1023.50 1023.89 1024.85 1025.54 1025.88 1026.06 1025.93 1025.72 1025.62 1025.49 1025.27 1025.06 1024.97 1024.67 1024.80 1024.75 1024.58 1024.31 1024.53 1024.45
1017.74 1017.57 1018.05 1018.73 1019.42 1020.13 1020.22 1019.80 1018.09 1017.07 1017.01 1017.07 1017.25 1017.66 1018.33 1019.25 1020.15 1021.02 1021.94 1022.64 1022.93 1023.47 1023.63 1023.60 1023.53 1023.28 1023.21 1023.06 1023.33 1023.37 1023.64 1024.49 1025.40 1025.99 1026.36 1026.33 1026.15 1026.04 1025.89 1025.82 1025.60 1025.47 1025.45 1025.61 1025.42 1025.34 1025.25 1024.93 1025.19
1017.81 1017.75 1018.44 1019.06 1019.71 1020.43 1020.76 1021.05 1018.25 1017.10 1016.73 1016.31 1016.44 1016.93 1017.61 1018.48 1019.32 1020.45 1021.52 1022.21 1022.85 1023.43 1023.78 1023.78 1023.72 1023.67 1023.51 1023.38 1023.48 1023.80 1023.87 1024.31 1025.13 1025.85 1026.28 1026.49 1026.46 1026.50 1026.41 1026.14 1026.06 1026.16 1026.11 1026.41 1026.51 1026.38 1026.24 1026.15 1026.14
1017.95 1018.35 1019.03 1019.69 1020.56 1020.92 1020.10 1020.45 1018.30 1017.05 1015.88 1015.57 1015.86 1016.57 1017.23 1018.29 1019.24 1020.15 1021.14 1022.17 1022.95 1023.44 1023.80 1023.91 1023.93 1023.87 1023.82 1023.80 1023.86 1024.05 1024.39 1024.78 1025.14 1025.85 1026.33 1026.74 1026.79 1026.78 1026.95 1026.55 1026.35 1026.49 1026.47 1026.88 1027.07 1027.10 1027.24 1027.06 1026.98
1018.25 1019.11 1020.22 1020.92 1021.37 1020.72 1019.87 1020.02 1017.35 1015.77 1015.03 1014.92 1015.42 1016.05 1016.90 1017.82 1018.92 1019.90 1020.83 1021.87 1022.77 1023.39 1023.82 1024.00 1024.07 1024.11 1024.09 1024.23 1024.31 1024.47 1024.61 1025.25 1025.22 1025.57 1026.30 1026.68 1027.04 1027.21 1027.29 1027.13 1027.01 1027.13 1027.09 1027.23 1027.59 1027.59 1027.83 1027.89 1027.92
1018.59 1019.48 1020.14 1020.92 1021.47 1020.83 1019.84 1018.57 1015.90 1014.60 1014.58 1014.71 1015.00 1015.61 1016.74 1017.76 1018.58 1019.41 1020.28 1021.29 1022.19 1023.02 1023.64 1024.00 1024.18 1024.32 1024.26 1024.43 1024.79 1025.01 1025.08 1025.55 1025.74 1025.78 1026.20 1026.67 1027.12 1027.18 1027.55 1027.68 1027.48 1027.35 1027.53 1027.76 1028.20 1028.23 1028.33 1028.59 1028.86
1018.81 1019.07 1019.52 1020.61 1021.45 1021.17 1019.39 1017.36 1015.33 1014.77 1014.78 1015.11 1015.47 1016.09 1017.00 1017.81 1018.57 1019.51 1020.44 1021.13 1021.99 1022.76 1023.33 1023.77 1024.19 1024.42 1024.58 1024.58 1025.13 1025.28 1025.37 1025.79 1026.11 1026.37 1026.33 1026.61 1027.25 1027.25 1027.45 1028.07 1027.87 1027.87 1027.98 1028.22 1028.67 1028.99 1029.07 1028.98 1029.13
1018.05 1018.70 1019.68 1020.53 1021.44 1020.64 1018.56 1017.30 1015.60 1014.66 1014.85 1015.15 1015.98 1016.71 1017.67 1018.45 1019.15 1019.98 1020.65 1021.21 1021.86 1022.40 1022.92 1023.45 1023.97 1024.42 1024.74 1024.64 1024.97 1025.35 1025.67 1025.78 1026.18 1026.39 1026.82 1026.65 1027.31 1027.56 1027.61 1028.52 1028.24 1028.21 1028.20 1028.56 1028.99 1029.49 1029.58 1029.64 1029.79
1018.55 1018.56 1018.81 1019.52 1020.07 1019.52 1018.41 1016.19 1014.48 1014.20 1014.55 1015.03 1016.18 1016.97 1017.70 1018.50 1019.23 1020.04 1020.79 1021.34 1021.74 1022.22 1022.71 1023.25 1023.97 1024.59 1024.95 1025.00 1025.27 1025.67 1025.99 1026.19 1026.10 1026.42 1026.90 1027.03 1027.21 1027.69 1027.65 1028.32 1028.43 1028.55 1028.63 1029.01 1029.34 1029.68 1029.88 1030.09 1030.34
1017.99 1017.74 1018.13 1018.70 1018.89 1018.82 1018.23 1014.95 1013.92 1014.12 1014.36 1014.53 1015.57 1016.72 1017.36 1018.20 1019.21 1020.04 1020.72 1021.34 1021.86 1022.31 1022.84 1023.30 1023.74 1024.17 1024.58 1025.08 1025.31 1025.61 1025.81 1026.06 1026.29 1026.45 1026.76 1026.81 1027.20 1027.44 1027.94 1028.30 1028.63 1028.87 1028.99 1029.40 1029.52 1029.96 1030.29 1030.54 1030.71
Wind_Speed
11 9 2 4 4 5 2 2 3 6 6 5 12 18 15 8 4 9 4 16 14 10 10 9 13 16 14 13 14 14 15 14 14 15 15 15 15 15 15 15 15 15 15 16 14 14 17 16 16
6 5 5 2 4 4 4 4 8 6 6 9 10 6 9 10 6 4 6 15 15 12 10 10 14 15 14 14 14 14 15 14 14 14 13 14 14 14 14 14 15 14 15 15 15 17 16 16 16
5 3 4 4 2 2 2 2 6 5 6 5 6 8 6 4 7 3 7 11 13 12 12 13 13 15 14 13 14 14 15 14 14 13 13 14 14 14 14 14 14 15 15 16 16 16 16 17 17
3 5 5 5 4 2 4 2 7 4 7 9 9 10 5 3 1 6 13 16 15 13 13 14 15 15 14 14 13 13 14 14 14 14 14 13 13 13 13 13 14 14 14 14 15 16 16 17 17
4 3 4 4 1 3 4 3 4 3 7 4 4 4 5 4 6 10 13 14 16 12 11 12 15 14 14 14 13 13 13 14 14 13 13 14 14 13 12 13 13 13 14 15 16 16 15 15 15
3 3 4 4 1 3 3 8 5 10 9 5 10 7 4 3 4 9 13 14 11 12 10 10 13 13 13 13 13 12 13 14 14 13 11 11 12 14 12 12 12 12 12 13 14 16 15 14 13
2 3 3 5 3 4 2 5 7 6 5 7 1 6 4 7 8 13 13 12 11 9 8 7 8 10 11 10 11 10 11 12 12 14 12 7 8 8 11 10 11 11 12 13 14 16 16 16 13
1 4 3 1 5 2 2 4 1 6 4 3 5 6 7 4 11 13 11 11 9 7 5 6 6 6 6 4 7 7 7 10 13 11 11 8 8 5 7 7 8 12 14 14 11 15 16 15 13
4 5 2 3 2 3 5 5 4 6 7 6 5 4 2 9 10 12 10 9 6 5 4 4 6 6 5 5 3 4 6 12 11 8 9 6 4 6 7 9 10 10 13 15 15 14 13 11 11
4 4 3 2 1 4 5 5 4 6 4 5 6 5 7 7 5 8 7 8 6 4 3 5 5 5 4 4 4 5 5 5 5 6 6 4 7 6 7 8 11 11 11 12 12 12 9 6 4
3 3 3 2 2 3 4 4 3 10 5 1 6 5 6 8 8 8 8 5 6 4 3 5 6 5 5 4 3 3 3 3 4 7 6 6 5 4 4 3 4 4 7 4 6 5 4 4 4
5 7 5 1 4 2 3 5 5 5 4 8 7 7 6 8 6 5 5 4 4 5 5 5 6 5 5 4 4 4 4 4 3 5 6 4 3 4 3 3 4 4 4 5 5 3 4 4 5
5 2 6 6 7 6 7 5 5 4 7 8 9 10 9 8 6 5 6 4 5 6 4 6 5 5 5 6 4 4 4 4 4 4 5 3 3 3 3 3 3 3 4 3 4 4 4 4 4
3 7 4 5 5 3 5 3 3 3 6 8 9 9 8 8 5 6 6 7 7 4 4 4 6 5 6 5 5 4 4 5 4 4 4 5 4 3 4 4 4 3 3 4 4 4 4 4 3
2 4 5 4 1 2 4 0 3 8 8 7 8 7 7 5 6 6 6 7 5 3 2 5 6 5 6 6 5 4 5 5 4 4 6 6 5 4 3 3 4 3 3 5 4 5 6 6 4
4 4 3 2 4 2 3 4 3 8 10 9 8 6 7 4 4 4 5 6 5 4 3 3 4 6 5 6 5 5 4 4 4 5 4 7 7 7 5 5 6 5 6 6 6 4 5 4 4
4 2 0 2 7 4 4 4 6 8 8 9 9 8 7 6 5 4 4 5 6 5 5 4 5 6 6 6 6 5 6 4 5 4 5 7 7 7 5 5 6 7 6 6 6 3 4 4 4
5 4 3 3 5 6 5 8 6 8 8 8 9 8 8 8 7 6 6 5 5 4 4 3 3 6 6 5 6 4 5 5 5 4 5 7 6 8 5 5 6 5 5 6 6 4 5 4 3
7 4 4 4 2 6 7 8 8 10 8 9 8 10 10 9 7 7 7 6 5 3 4 4 4 4 3 3 5 3 4 3 4 4 6 6 6 6 6 4 5 4 6 6 7 4 5 8 7
5 5 4 1 2 1 6 11 10 8 11 12 13 14 13 10 9 8 7 6 6 5 3 3 3 4 3 3 4 4 4 3 4 3 4 5 5 6 5 5 5 5 3 8 9 8 3 4 8
2 2 4 2 3 2 4 8 9 9 13 10 11 15 15 17 14 11 10 8 7 6 5 4 3 2 3 6 6 5 7 4 2 3 3 4 6 6 6 6 5 5 5 6 6 5 7 3 6
2 5 1 5 2 3 4 8 6 5 12 14 17 15 15 14 13 12 11 8 8 6 4 4 3 3 2 3 5 9 5 5 3 3 3 4 6 6 6 6 6 6 5 7 5 7 6 4 4
2 3 3 2 1 3 3 1 9 5 6 12 15 14 12 16 16 15 13 10 7 6 5 4 4 2 2 2 4 4 6 6 5 4 6 5 5 6 6 6 7 7 6 7 8 8 8 7 6
5 4 1 3 2 2 8 7 5 5 7 5 7 12 12 14 13 12 10 10 7 6 6 5 5 2 3 4 3 7 9 7 6 5 5 4 4 3 5 6 7 6 7 7 7 8 9 7 8
4 5 3 3 1 6 1 4 9 8 8 7 8 12 12 15 14 14 14 12 9 8 6 5 6 4 4 5 5 5 6 5 7 7 6 6 3 3 5 5 6 5 7 7 7 8 9 8 7
7 8 6 5 3 5 0 7 8 6 2 2 2 7 10 14 14 16 16 13 11 9 7 6 6 5 6 6 5 5 6 4 4 7 7 5 4 4 4 5 6 7 8 8 6 6 6 7 7
5 8 3 2 1 1 5 8 9 2 4 2 4 6 12 13 14 14 13 12 11 9 8 8 7 6 6 6 5 5 5 6 6 7 7 6 6 6 7 4 6 7 8 8 7 6 7 7 7
5 5 2 1 2 6 6 6 9 4 6 4 5 6 5 6 8 10 10 9 9 9 7 8 7 7 6 7 6 5 5 6 6 7 7 8 7 6 7 4 6 8 8 7 7 6 6 7 5
2 3 4 6 6 4 4 7 6 6 6 6 8 8 9 10 10 10 8 8 9 7 7 8 7 7 6 6 6 5 5 5 7 7 6 7 8 7 8 6 7 7 8 7 8 8 7 8 7
7 9 8 6 4 4 3 15 4 7 6 7 9 7 8 10 10 9 10 10 9 8 7 7 8 8 7 6 7 8 9 9 7 7 7 8 8 7 7 7 7 7 7 6 7 8 6 7 8
Wind_Direction
306 299 338 32 65 69 257 343 110 60 55 9 58 86 91 54 26 125 110 111 117 116 100 98 99 98 94 85 76 71 66 56 49 45 47 41 40 37 31 33 29 25 24 32 28 26 27 19 17
305 312 39 57 88 76 291 71 76 81 123 109 68 59 51 60 43 98 84 131 131 117 106 96 102 98 91 83 79 71 63 56 52 47 46 45 40 40 35 32 34 28 31 24 29 29 24 19 17
284 38 73 88 99 89 99 78 115 83 48 74 100 53 53 10 43 68 80 123 112 112 108 107 102 99 92 85 78 73 69 54 47 43 43 44 43 42 38 34 35 32 32 29 29 28 24 21 21
340 9 28 82 116 34 77 87 126 89 68 64 115 69 68 300 30 85 89 94 87 93 102 102 101 97 94 89 81 74 68 60 49 40 40 42 46 44 44 38 38 37 29 30 29 26 26 25 24
16 47 59 80 7 92 29 70 50 94 88 57 77 72 73 22 33 80 84 85 100 90 91 92 95 95 92 88 82 75 69 61 49 46 46 42 46 48 47 44 38 37 35 31 28 25 24 21 19
13 94 70 134 145 110 27 36 23 88 102 86 79 87 85 303 119 96 87 87 85 95 89 89 84 84 87 87 83 74 72 65 54 47 44 42 42 43 43 45 45 36 28 24 21 20 16 17 19
151 96 136 150 163 63 70 62 43 59 57 24 145 91 128 76 92 94 93 90 89 91 97 102 100 95 85 86 88 80 76 65 56 35 33 46 27 48 46 45 41 33 21 14 14 17 24 29 30
50 94 79 191 172 118 4 76 18 56 38 1 357 137 144 89 91 94 88 90 90 92 100 128 131 107 99 92 97 96 76 72 52 25 32 70 40 41 34 28 16 17 14 17 6 28 27 32 30
357 69 145 209 96 137 32 109 35 44 76 51 41 64 310 118 111 105 102 89 84 72 76 105 101 113 120 121 114 56 69 67 54 24 11 29 16 7 8 357 356 16 8 11 27 26 29 29 28
57 103 132 12 19 89 64 55 94 78 59 73 83 55 46 55 87 100 119 111 103 90 78 96 96 85 93 86 81 51 56 61 46 32 6 27 30 35 30 20 15 12 8 7 16 14 24 30 36
25 96 129 8 53 28 88 51 47 133 68 38 140 114 58 73 72 84 75 89 109 116 92 87 90 86 82 75 79 62 51 57 39 30 30 42 41 21 12 15 2 0 351 9 5 1 22 31 54
105 65 102 123 14 34 73 103 55 43 133 125 120 122 108 89 71 93 100 96 112 122 108 101 93 86 77 90 82 79 72 64 49 38 36 38 34 26 15 27 2 359 340 358 356 348 6 37 70
74 82 62 89 71 65 62 74 116 109 133 135 133 119 116 115 129 126 124 111 115 98 67 118 107 88 79 79 77 75 71 78 67 61 30 40 34 24 3 12 23 3 351 348 354 356 6 40 80
45 86 93 88 87 67 102 156 76 204 155 151 135 112 101 94 84 93 111 100 87 83 49 102 109 103 90 85 84 84 86 80 63 54 36 19 27 9 15 9 3 6 1 359 5 13 16 19 100
75 79 64 31 32 103 115 291 216 161 149 151 120 115 98 96 91 92 96 104 115 99 65 65 107 109 105 98 89 75 66 76 58 50 35 9 14 16 15 6 354 342 360 358 7 12 21 29 15
62 57 120 208 161 167 175 253 174 178 158 171 158 141 134 146 142 122 116 121 131 135 107 63 83 105 107 106 92 71 81 77 61 40 34 11 9 6 6 15 5 357 25 16 358 11 25 22 17
24 137 185 204 204 148 207 234 171 183 183 184 167 159 163 167 158 158 121 132 146 155 159 135 130 127 121 115 92 88 77 56 58 40 32 15 14 14 25 27 15 28 31 22 3 353 38 22 2
151 168 196 239 224 195 201 243 178 195 193 199 182 168 172 176 186 167 161 158 161 163 181 163 147 145 139 127 109 104 84 68 55 35 31 26 15 16 23 25 20 23 37 22 9 8 28 27 343
147 145 172 201 231 195 244 266 228 200 203 213 196 174 183 183 168 167 175 174 161 175 177 182 154 160 154 161 130 116 104 94 69 51 37 38 25 17 20 22 32 28 48 36 17 356 17 26 4
123 159 202 107 92 139 285 274 266 197 214 205 193 191 187 177 171 177 168 172 173 166 156 128 132 134 180 121 124 131 123 95 102 75 51 45 33 22 31 23 36 31 52 51 28 22 2 37 28
289 183 203 190 157 280 348 280 243 227 208 208 213 199 192 177 175 176 171 181 164 151 157 137 124 103 65 121 121 113 106 108 112 59 43 33 37 30 27 30 35 36 34 46 44 15 30 41 37
293 223 49 115 88 264 126 291 308 245 222 204 207 198 192 179 177 172 174 172 157 159 150 125 106 82 45 170 151 155 153 144 133 127 98 56 38 35 32 32 39 46 44 44 40 38 40 50 44
202 100 138 201 267 303 192 6 269 255 255 222 217 207 192 181 172 173 173 162 151 150 159 150 121 81 16 358 182 144 128 118 125 124 117 83 50 36 31 44 44 44 53 54 49 43 45 46 61
165 103 11 16 89 336 221 170 268 225 209 249 205 207 180 172 169 162 147 139 147 157 162 159 149 140 64 67 87 141 135 141 138 135 115 93 72 50 31 49 60 59 63 66 61 57 49 52 63
138 88 353 340 243 240 313 182 247 265 248 222 218 199 180 170 163 156 154 156 154 168 173 164 156 143 107 85 75 100 129 142 138 134 126 119 87 56 50 51 62 58 59 67 71 67 61 53 62
184 162 162 219 226 267 242 240 254 241 156 34 178 197 167 167 170 168 165 159 160 167 172 167 161 149 129 119 111 107 104 115 111 119 123 113 112 105 68 59 74 73 73 71 68 70 75 67 66
228 219 199 354 359 353 241 290 297 141 242 242 231 157 179 174 170 165 161 160 159 163 173 165 161 155 153 139 126 114 113 112 120 111 115 121 120 112 93 84 84 76 81 78 79 78 79 77 71
158 178 154 356 259 255 266 248 239 278 275 229 238 197 164 144 145 155 164 161 159 163 162 158 161 163 169 144 137 131 126 123 124 122 128 115 116 106 97 90 90 91 91 89 88 86 70 76 70
153 211 206 164 178 220 293 262 218 225 211 194 220 199 172 172 168 166 163 164 161 155 157 161 160 158 155 134 125 122 127 127 121 122 124 129 120 125 110 120 103 98 97 97 102 92 88 86 80
211 215 194 186 231 233 234 262 231 212 226 163 199 206 178 177 171 168 166 167 167 171 167 170 164 162 158 155 150 156 152 149 137 139 145 136 132 122 122 115 110 104 103 101 96 106 98 100 93